Skip Navigation Links
Stormchaser Mountsorrel Leicester current Weather StormChaser Mountsorrel Leicester current Weather

7 Day Weather Forecast for Mountsorrel / Rothley


Tonight: Cloudy this evening and through the night. Becoming breezy with a risk of some patchy rain after midnight. Mild and muggy. Minimum Temperature 16C.

Monday: Cloudy and breezy during the morning. Warm and dry through the afternoon with long periods of sunshine. Dry with clear spells overnight. Maximum Temperature 27C.

Outlook for Tuesday to Thursday: Hot and sunny on Tuesday, risk of thunderstorms later. Dry and bright Wednesday, becoming hot once again. Very warm on Thursday with a risk of heavy showers.
XML Weather DataFeed Supplied by NetWeather.tv
GFS Model Run: Sat 20 Jul 18:00 pm
Data Obtained: Sat 20 Jul 23:05 pm

DateTimeTempDew PointWind ChillWind SpeedWind DirectionAir PressureRainStorm RiskSnow Risk% CloudForecastWxIcon
Sun 21 Jul06:00 am14°c11°c13°c7 mph SW 1017 mb--7%--50%Sunny Periods Sunny Periods
 09:00 am17°c14°c17°c10 mph SW 1019 mb--10%--90%Overcast Overcast
 12:00 pm21°c14°c21°c12 mph SW 1019 mb--13%--90%Overcast Overcast
 15:00 pm21°c15°c21°c11 mph SW 1019 mb0.2 mm10%--100%Scattered Showers Scattered Showers
 18:00 pm20°c16°c20°c8 mph SW 1018 mb--10%--100%Overcast Overcast
 21:00 pm18°c15°c17°c12 mph SSW 1019 mb--7%--100%Overcast Overcast
Mon 22 Jul00:00 am17°c15°c16°c15 mph SSW 1018 mb--7%--100%Overcast Overcast
 03:00 am16°c14°c15°c17 mph SW 1018 mb--7%--100%Overcast Overcast
 06:00 am18°c16°c17°c14 mph SW 1018 mb--7%--100%Overcast Overcast
 09:00 am20°c16°c20°c15 mph SW 1019 mb--7%--100%Overcast Overcast
 12:00 pm23°c18°c23°c15 mph SW 1020 mb--10%--100%Overcast Overcast
 15:00 pm25°c18°c25°c14 mph SW 1019 mb--10%--60%Sunny Spells Sunny Spells
 18:00 pm24°c19°c24°c9 mph WSW 1019 mb--30%--30%Sunny Periods Sunny Periods
 21:00 pm19°c17°c19°c7 mph SW 1021 mb--7%----Clear Clear
Tue 23 Jul00:00 am17°c16°c17°c5 mph SW 1020 mb--7%--20%Light Cloud Light Cloud
 03:00 am16°c15°c16°c3 mph SSW 1020 mb--7%----Clear Clear
 06:00 am18°c16°c18°c4 mph SOUTH 1019 mb--7%----Clear Clear
 09:00 am23°c18°c23°c7 mph SSE 1018 mb--12%----Clear Clear
 12:00 pm26°c17°c26°c9 mph SOUTH 1017 mb--12%----Clear Clear
 15:00 pm28°c18°c28°c11 mph SSE 1015 mb--63%----Clear Clear
 18:00 pm27°c20°c27°c9 mph SE 1014 mb--62%--20%62% Chance of Thunderstorm 62% Chance of Thunderstorm
 21:00 pm22°c16°c22°c11 mph SE 1014 mb--12%--50%Light Cloud Light Cloud
Wed 24 Jul00:00 am19°c16°c19°c10 mph SE 1013 mb0.4 mm12%--70%Scattered Showers Scattered Showers
 03:00 am19°c17°c19°c2 mph SSW 1011 mb2.2 mm12%--100%Scattered Showers Scattered Showers
 06:00 am20°c17°c20°c5 mph ESE 1011 mb1.8 mm12%--90%Scattered Showers Scattered Showers
 09:00 am24°c19°c24°c8 mph WSW 1011 mb--35%----Clear Clear
 12:00 pm26°c18°c26°c8 mph WSW 1011 mb--45%--40%45% Chance of Thunderstorm 45% Chance of Thunderstorm
 15:00 pm27°c18°c27°c10 mph SSW 1011 mb--52%--70%52% Chance of Thunderstorm 52% Chance of Thunderstorm
 18:00 pm24°c19°c24°c8 mph SSW 1011 mb--52%--80%52% Chance of Thunderstorm 52% Chance of Thunderstorm
 21:00 pm22°c17°c22°c6 mph SSE 1012 mb--18%--100%Overcast Overcast
Thu 25 Jul00:00 am21°c17°c21°c6 mph SE 1010 mb--12%--100%Overcast Overcast
 03:00 am19°c16°c19°c5 mph SE 1008 mb1.3 mm10%--90%Scattered Showers Scattered Showers
 06:00 am20°c17°c20°c8 mph SOUTH 1007 mb0.8 mm12%--100%Scattered Showers Scattered Showers
 09:00 am22°c18°c22°c11 mph SSW 1007 mb1.6 mm12%--100%Scattered Showers Scattered Showers
 12:00 pm22°c17°c22°c12 mph SSW 1008 mb1.0 mm12%--100%Scattered Showers Scattered Showers
 15:00 pm20°c18°c20°c11 mph SOUTH 1009 mb0.5 mm35%--100%Scattered Showers Scattered Showers
 18:00 pm21°c16°c21°c9 mph SW 1010 mb0.3 mm30%--100%Scattered Showers Scattered Showers
 21:00 pm18°c13°c18°c9 mph WSW 1012 mb--7%--100%Overcast Overcast
Fri 26 Jul00:00 am16°c12°c15°c8 mph WEST 1013 mb--7%--100%Overcast Overcast
 03:00 am13°c11°c12°c6 mph SW 1014 mb--7%--80%Overcast Overcast
 06:00 am14°c11°c13°c8 mph SW 1015 mb--7%--90%Overcast Overcast
 09:00 am18°c13°c18°c8 mph WSW 1015 mb--7%--100%Overcast Overcast
 12:00 pm21°c13°c21°c9 mph WSW 1015 mb--13%--90%Overcast Overcast
 15:00 pm19°c14°c19°c11 mph WSW 1014 mb1.4 mm32%--60%Scattered Showers Scattered Showers
 18:00 pm19°c14°c19°c9 mph WEST 1015 mb0.9 mm32%--70%Scattered Showers Scattered Showers
 21:00 pm15°c12°c14°c7 mph WSW 1016 mb--10%----Clear Clear
Sat 27 Jul00:00 am13°c10°c12°c6 mph SW 1016 mb--7%----Clear Clear
 03:00 am14°c10°c12°c9 mph SSW 1016 mb--7%--80%Mostly Cloudy Mostly Cloudy
 06:00 am14°c12°c13°c12 mph SOUTH 1015 mb--7%--50%Sunny Periods Sunny Periods
 09:00 am17°c13°c16°c18 mph SSW 1014 mb--7%--90%Overcast Overcast
 12:00 pm19°c14°c18°c20 mph SSW 1013 mb--13%--80%Overcast Overcast
 15:00 pm18°c15°c17°c15 mph SSW 1011 mb1.1 mm13%--100%Scattered Showers Scattered Showers
 18:00 pm20°c14°c20°c12 mph SW 1011 mb0.7 mm20%--50%Scattered Showers Scattered Showers
 21:00 pm16°c13°c15°c11 mph WSW 1013 mb--30%----Clear Clear




The Mountsorrel Weather Station is located in Mountsorrel which is just South of Loughborough and just North of Leicester in Leicestershire.
It is maintained by Stormchaser Stuart Robinson whose passion is for all type of weather but especially the more severe types of weather such as Hurricanes, Typhoon and Tornadoes.